Погода в Станиславчике

Украина / Винницкая область     48°58′22″N   28°06′08″E
темп.,
°C
ветер,
м/с
пор.,
м/с
влажн.,
%
обл.,
%
осадки,
мм/ч
давл.,
гПа
погр.,
м
17 июня, чт
чт1700:00+14с48951 0.0 1017145
03:00+14с49961 0.0 1017160
06:00+14ссв4998100 0.5 1017223
09:00+18ссв588995 1.1 1018365
12:00+22св797192 1.6 10181210
15:00+23св786937 2.2 10181435
18:00+22св5978100 0.7 10181052
21:00+18ссв4891100 1.1 1019178
18 июня, пт
пт1800:00+17ссв412955 0.0 1019328
03:00+16ссв5119825 0.0 1019324
06:00+16ссв511979 0.0 1019313
09:00+19ссв711841 0.0 1019521
12:00+21св7108588 0.1 1019951
15:00+21всв7118498 0.8 10191053
18:00+21всв698640 1.1 10181077
21:00+18всв499598 1.4 1019340
19 июня, сб
сб1900:00+16всв389854 0.0 1020202
03:00+15св379861 0.0 1019159
06:00+16всв4899100 1.2 1019394
09:00+16всв5109797 1.8 1020458
12:00+21всв6880100 0.8 1018996
15:00+21в578644 2.6 1018819
18:00+21в568335 1.9 1017843
21:00+18всв389676 4.7 1017167
20 июня, вс
вс2000:00+16всв359713 0.8 1018108
03:00+16всв22960 0.8 101734
06:00+16св3596100 0.0 1017101
09:00+19всв4694100 0.3 1017417
12:00+22в5778100 0.1 1016778
15:00+19св3788100 2.1 1015205
18:00+22в6981100 1.9 1014993
21:00+18в3892100 2.1 1014208
21 июня, пн
пн2100:00+17всв3895100 0.5 1014232
03:00+16всв35965 0.5 1013109
06:00+15всв349778 0.0 101397
09:00+20всв348787 0.0 1013404
12:00+23вюв237299 0.0 10121099
15:00+25ююв2263100 0.2 10111353
18:00+25ююв226745 0.1 1011993
21:00+20юв228524 0.1 101115